Regional Weather Roundup
Issued by NWS

Home | Current Version | Previous Version | Text Only | Print | Product List | Glossary On
Versions: 1 2 3 4 5 6 7 8 9 10 11 12 13 14 15 16 17 18 19 20 21 22 23 24 25 26 27 28 29 30 31 32 33 34 35 36 37 38 39 40 41 42 43 44 45 46 47 48 49 50
000
ASHW40 PHFO 230343
RWRHI

WEATHER ROUNDUP FOR HAWAII
NATIONAL WEATHER SERVICE HONOLULU HI
500 PM HST FRI AUG 22 2014

THIS IS AN AUTOMATED REPORT THAT HAS NOT BEEN QUALITY CONTROLLED.

NOTE..."FAIR" INDICATES FEW OR NO CLOUDS BELOW 12,000 FEET WITH NO
SIGNIFICANT WEATHER AND/OR OBSTRUCTIONS TO VISIBILITY.

* - THESE SITES REPORT LIMITED FIELDS

HIZ001>004-230400-
KAUAI-NIIHAU-

CITY           SKY/WX    TMP DP  RH WIND       PRES   REMARKS
LIHUE APT      MOSUNNY   82  69  64 NE17      29.99S
PORT ALLEN*      N/A     84 N/A N/A E21G30      N/A
POIPU*           N/A     81 N/A N/A NE12G18     N/A
PRINCEVILLE*   NOT AVBL
KOKOLE POINT*  NOT AVBL
MOLOAA DAIRY*  NOT AVBL
WAIMEA HTS*      N/A     82  66  57 W5G12       N/A
PUU OPAE*        N/A     75  66  73 CALM        N/A
PUU LUA*       NOT AVBL
MAKAHA RIDGE*  NOT AVBL
$$

HIZ005>011-230400-
OAHU-

CITY           SKY/WX    TMP DP  RH WIND       PRES   REMARKS
HONOLULU       PTSUNNY   83  65  54 NE14G22   29.95S
KALAELOA       MOSUNNY   85  66  53 VRB6      29.95S
KANEOHE MCB    CLOUDY    81  70  70 NE12G20   29.97S
WHEELER FIELD  CLOUDY    79  66  65 NE12      29.98S
BELLOWS*         N/A    N/A N/A N/A NE21        N/A
KAHUKU*          N/A    N/A N/A N/A NE8G17      N/A
WHEELER*       NOT AVBL
WAIANAE HARBOR NOT AVBL
DILLINGHAM*      N/A     82  68  61 NE10G17     N/A
KAHUKU TRN*      N/A     79  68  69 E12G23      N/A
KAWAILOA*      NOT AVBL
KII*             N/A     81  70  69 NE16G22     N/A
MAKUA RANGE*     N/A     84  66  54 NE15G26     N/A
OAHU FOREST NW   N/A     66  66 100 N23G37      N/A
SCHOFIELD BRK*   N/A     77  66  69 MISG        N/A
SCHOFIELD S*   NOT AVBL
WAIANAE VLY*     N/A     79  63  57 SE6G26      N/A
KUAOKALA*        N/A     77  66  69 CALM        N/A
HONOULIUULI*   NOT AVBL
MOKUOLOE IS*     N/A    N/A N/A N/A MISG        N/A
PALEHUA*         N/A     84  66  54 CALM        N/A
WAIAWA PHB*    NOT AVBL
$$

HIZ012>013-230400-
MOLOKAI-

CITY           SKY/WX    TMP DP  RH WIND       PRES   REMARKS
MOLOKAI AIRPT  PTSUNNY   80  71  74 NE10G24   29.96F
KALAUPAPA      NOT AVBL
MAKAPULAPAI*     N/A     81  68  65 E18G26      N/A
MOLOKAI 1*       N/A     72  63  73 W7G24       N/A
PUU ALII*        N/A     63  62  95 E3G16       N/A
$$

HIZ016-230400-
KAHOOLAWE-

CITY           SKY/WX    TMP DP  RH WIND       PRES   REMARKS
KAHOOLAWE*       N/A     75 N/A N/A E10G23      N/A
HAKIOAWA*      NOT AVBL
HONOKANAIA*      N/A     84  67  56 N18G35    29.94S
KANELOA*         N/A     75  66  73 E17G31    30.04S
KEALIALALO*    NOT AVBL
LUA MAKIKA*    NOT AVBL
$$

HIZ014>015-230400-
LANAI-

CITY           SKY/WX    TMP DP  RH WIND       PRES   REMARKS
LANAI CITY     FAIR      80  66  62 NE28      29.98F
LANAI 1*         N/A     75  72  88 NE22G40     N/A
$$

HIZ017>028-230400-
MAUI-

CITY           SKY/WX    TMP DP  RH WIND       PRES   REMARKS
KAHULUI        MOSUNNY   83  69  62 NE20      29.96S
KAPALUA-W MAUI MOSUNNY   82  68  61 NE22      29.95
HANA AIRPORT   CLOUDY    77  68  73 W6        30.00S
HANA*            N/A     79 N/A N/A N3G12       N/A
HALEAKALA SUMM   N/A     52  21  30 N14         N/A
MAALAEA BAY*   NOT AVBL
HALEAKALA*     NOT AVBL
KAUPO GAP*       N/A     66  66 100 N5G12       N/A
KULA 1*          N/A     63  58  83 NW7G13      N/A
$$

HIZ023>026-230400-
BIG ISLAND OF HAWAII COAST AND LOWER SLOPES-

CITY           SKY/WX    TMP DP  RH WIND       PRES   REMARKS
KAILUA KONA    MOSUNNY   86  69  56 S10       29.89R HX  90
HILO           CLOUDY    76  71  85 N6        29.95S
HONOKAA*       NOT AVBL
KAWAIHAE MWT*    N/A     86 N/A N/A W14G20      N/A
KAWAIHAE*        N/A     84 N/A N/A SW12        N/A
SOUTH POINT*     N/A     77 N/A N/A NE15G23     N/A
UPOLU AIRPORT*   N/A    N/A N/A N/A NE18G26     N/A
KAMUELA*       PTCLDY    70  63  78 NE17      30.04S
HAKALAU*         N/A     60  55  82 N6G13       N/A
KALOKO-HONOKO*   N/A     84  72  65 S9        29.89R
PALI 2*          N/A     72  59  64 N26G38      N/A
KEALAKOMO*       N/A     82  66  57 NE17G30     N/A
KAUPULEHU*       N/A     81  57  44 NE15G21     N/A
KAPAPALA*        N/A     75  66  73 W3G10       N/A
LOWER KAHUKU*  NOT AVBL
PUHE CS*       NOT AVBL
PUHO CS*         N/A     85  71  62 W3          N/A  HX  90
PTA KEAMUKU*     N/A     70  57  64 NE29G38     N/A
WAIKOLOA*        N/A    N/A N/A N/A NE20G32     N/A
$$

HIZ027>028-230400-
BIG ISLAND OF HAWAII INTERIOR AND SUMMMITS-

CITY           SKY/WX    TMP DP  RH WIND       PRES   REMARKS
BRADSHAW FIELD SUNNY     65  54  67 SW5       30.28R
MK VISITOR CEN NOT AVBL
MAUNA KEA*       N/A     41  -9  11 E15         N/A
MAUNA LOA*       N/A     52  34  50 MISG        N/A
MAUNA LOA 1*     N/A     54  34  47 MISG        N/A
PTA KIPUKA*      N/A     68  55  64 NW7G16      N/A
PTA RANGE 17*    N/A     66  55  68 W9G26       N/A
PTA WEST*        N/A     70  57  64 NW16G26     N/A
NENE CABIN*    NOT AVBL
AHUMOA*          N/A     68  34  28 W6G16       N/A
PTA PORTABLE*  NOT AVBL
PUU MALI*      NOT AVBL
$$

HIC003-230400-
NORTHWEST ISLANDS-

CITY           SKY/WX    TMP DP  RH WIND       PRES   REMARKS
MIDWAY ISLAND  MOSUNNY   90  75  62 SW10      30.03F HX 100
MIDWAY NOS*    NOT AVBL
FRENCH FRIGATE NOT AVBL
$$

PHZ110>124-180-230400-
BUOY REPORTS

STATION/POSITION TIME  TEMP    WIND        PRES    WAVE   SWELL
                       AIR SEA DIR/SP/G            HT/PER HT/DIR
                 (UTC) (F)     (DEG/KT/KT) (MB)    (FT/S) (FT/D)
BUOY 51001       NOT AVBL
BUOY 51101       NOT AVBL
BUOY 51100       0300   78 79   40/ 16/ 17 1014.9F
BUOY 51003       0300   81 82   50/ 14/ 16 1013.3F   6/ 7   5
BUOY 51004       0216   78 80   50/ 17/ 19 1011.7    6/15   3/170
BARBERS PT BUOY  NOT AVBL
WAIMEA BAY BUOY  0300      81                N/A     4/ 6
KAILUA BAY BUOY  0300      81                N/A     5/ 5   2/140
LANAI BUOY       NOT AVBL
BARBERS PT 2     0300      81                N/A     4/15   3/190
PAUWELA MAUI     0300      80                N/A     5/ 8
HILO             NOT AVBL
KANEOHE BAY BUOY 0300      80                N/A     5/ 5
HANALEI KAUAI    NOT AVBL
KAHULUI HARBOR   0300   80 81   40/ 12/ 18 1014.4R
HONOLULU HARBOR  0300   81      50/  4/ 11 1014.4F
KILO NALU        NOT AVBL
HILO HARBOR      0300   77     340/ 15/ 18 1013.9R
MOKUOLOE         0300   80 82   50/ 14/ 17 1015.2R
NAWILIWILI       0300      82                N/A
WHOTS BUOY       NOT AVBL
BUOY 51028       NOT AVBL
$$

......................KEY........................................
  SKY/WX - SKY CONDITIONS/PRESENT WEATHER
  TMP    - TEMPERATURE IN FAHRENHEIT
  DWPT   - DEWPOINT IN FAHRENHEIT
  RH     - RELATIVE HUMIDITY IN PERCENT
  WIND   - DIRECTION AND SPEED /MPH FOR ISLANDS...KTS FOR BUOYS/
  PRES   - MEAN SEA LEVEL PRESSURE IN INCHES OF HG
  VSB    - VISIBILITY IN MILES
  HX     - HEAT INDEX
  WCI    - WIND CHILL INDEX
  VRB    - VARIABLE WIND DIRECTION
  N/A    - NOT AVAILABLE


USA.gov is the U.S. government's official web portal to all federal, state and local government web resources and services.